Hourly Weather Oqqurgan

Today, 26 January, Tuesday

Time Temperature Precipitation Wind Pressure Humidity
00:00 0°C° 0 mm 1 mps 733 mmHg 59%
01:00 0°C° 0 mm 1 mps 733 mmHg 60%
02:00 0°C° 0 mm 1 mps 733 mmHg 61%
03:00 0°C° 0 mm 1 mps 733 mmHg 60%
04:00 0°C° 0 mm 1 mps 733 mmHg 60%
05:00 -1°C° 0 mm 1 mps 732 mmHg 59%
06:00 -1°C° 0 mm 1 mps 733 mmHg 57%
07:00 -1°C° 0 mm 1 mps 733 mmHg 56%
08:00 -1°C° 0 mm 1 mps 733 mmHg 55%
09:00 +1°C° 0 mm 1 mps 733 mmHg 50%
10:00 +3°C° 0 mm 1 mps 733 mmHg 44%
11:00 +5°C° 0 mm 1 mps 732 mmHg 39%
12:00 +6°C° 0 mm 1 mps 732 mmHg 37%
13:00 +6°C° 0 mm 1 mps 731 mmHg 35%
14:00 +7°C° 0 mm 1 mps 731 mmHg 33%
15:00 +7°C° 0 mm 1 mps 731 mmHg 35%
16:00 +6°C° 0 mm 1 mps 732 mmHg 37%
17:00 +5°C° 0 mm 0 mps 732 mmHg 39%
18:00 +5°C° 0 mm 1 mps 732 mmHg 43%
19:00 +4°C° 0 mm 1 mps 733 mmHg 48%
20:00 +2°C° 0 mm 2 mps 733 mmHg 52%
21:00 +1°C° 0 mm 2 mps 733 mmHg 53%
22:00 +1°C° 0 mm 2 mps 733 mmHg 54%
23:00 -1°C° 0 mm 2 mps 733 mmHg 56%

Tomorrow, 27 January, Wednesday

Time Temperature Precipitation Wind Pressure Humidity
00:00 -1°C° 0 mm 2 mps 733 mmHg 54%
01:00 -1°C° 0 mm 2 mps 733 mmHg 53%
02:00 -2°C° 0 mm 2 mps 733 mmHg 51%
03:00 -2°C° 0 mm 2 mps 733 mmHg 50%
04:00 -2°C° 0 mm 2 mps 733 mmHg 49%
05:00 -2°C° 0 mm 2 mps 733 mmHg 47%
06:00 -2°C° 0 mm 2 mps 733 mmHg 47%
07:00 -2°C° 0 mm 2 mps 734 mmHg 46%
08:00 -2°C° 0 mm 2 mps 734 mmHg 46%
09:00 +1°C° 0 mm 2 mps 733 mmHg 41%
10:00 +2°C° 0 mm 2 mps 733 mmHg 36%
11:00 +4°C° 0 mm 2 mps 733 mmHg 31%
12:00 +5°C° 0 mm 2 mps 732 mmHg 30%
13:00 +7°C° 0 mm 1 mps 732 mmHg 28%
14:00 +8°C° 0 mm 1 mps 732 mmHg 26%
15:00 +7°C° 0 mm 1 mps 732 mmHg 29%
16:00 +7°C° 0 mm 1 mps 732 mmHg 32%
17:00 +6°C° 0 mm 1 mps 732 mmHg 34%
18:00 +5°C° 0 mm 1 mps 733 mmHg 39%
19:00 +3°C° 0 mm 2 mps 733 mmHg 43%
20:00 +2°C° 0 mm 2 mps 733 mmHg 47%
21:00 +1°C° 0 mm 2 mps 733 mmHg 48%
22:00 +1°C° 0 mm 2 mps 733 mmHg 48%
23:00 -1°C° 0 mm 2 mps 733 mmHg 49%

Day after tomorrow, 28 January, Thursday

Time Temperature Precipitation Wind Pressure Humidity
00:00 -1°C° 0 mm 2 mps 733 mmHg 48%
01:00 -1°C° 0 mm 2 mps 733 mmHg 47%
02:00 -2°C° 0 mm 2 mps 733 mmHg 46%
03:00 -2°C° 0 mm 2 mps 733 mmHg 45%
04:00 -2°C° 0 mm 2 mps 733 mmHg 45%
05:00 -2°C° 0 mm 2 mps 732 mmHg 44%
06:00 -2°C° 0 mm 2 mps 733 mmHg 43%
07:00 -2°C° 0 mm 2 mps 733 mmHg 42%
08:00 -2°C° 0 mm 2 mps 733 mmHg 41%
09:00 +1°C° 0 mm 2 mps 733 mmHg 36%
10:00 +2°C° 0 mm 2 mps 732 mmHg 31%
11:00 +4°C° 0 mm 2 mps 732 mmHg 27%
12:00 +5°C° 0 mm 2 mps 731 mmHg 25%
13:00 +6°C° 0 mm 2 mps 731 mmHg 24%
14:00 +8°C° 0 mm 1 mps 731 mmHg 22%
15:00 +8°C° 0 mm 1 mps 731 mmHg 25%
16:00 +7°C° 0 mm 1 mps 731 mmHg 28%
17:00 +6°C° 0 mm 1 mps 731 mmHg 30%
18:00 +5°C° 0 mm 1 mps 732 mmHg 35%
19:00 +3°C° 0 mm 2 mps 732 mmHg 39%
20:00 +2°C° 0 mm 2 mps 733 mmHg 43%
21:00 +2°C° 0 mm 2 mps 732 mmHg 44%
22:00 +1°C° 0 mm 2 mps 732 mmHg 45%
23:00 -1°C° 0 mm 2 mps 732 mmHg 45%

29 January, Friday

Time Temperature Precipitation Wind Pressure Humidity
00:00 -1°C° 0 mm 2 mps 732 mmHg 44%
01:00 -1°C° 0 mm 2 mps 732 mmHg 43%
02:00 -2°C° 0 mm 2 mps 732 mmHg 42%
03:00 -2°C° 0 mm 2 mps 732 mmHg 41%
04:00 -2°C° 0 mm 2 mps 732 mmHg 40%
05:00 -2°C° 0 mm 2 mps 732 mmHg 39%
06:00 -2°C° 0 mm 2 mps 732 mmHg 39%
07:00 -2°C° 0 mm 2 mps 732 mmHg 38%
08:00 -2°C° 0 mm 2 mps 733 mmHg 37%
09:00 +1°C° 0 mm 2 mps 732 mmHg 33%
10:00 +3°C° 0 mm 2 mps 732 mmHg 28%
11:00 +5°C° 0 mm 2 mps 731 mmHg 24%
12:00 +6°C° 0 mm 2 mps 731 mmHg 23%
13:00 +7°C° 0 mm 2 mps 731 mmHg 21%
14:00 +9°C° 0 mm 1 mps 730 mmHg 20%
15:00 +8°C° 0 mm 1 mps 731 mmHg 23%
16:00 +8°C° 0 mm 1 mps 731 mmHg 26%
17:00 +7°C° 0 mm 1 mps 731 mmHg 29%
18:00 +5°C° 0 mm 2 mps 732 mmHg 33%
19:00 +3°C° 0 mm 2 mps 732 mmHg 38%
20:00 +2°C° 0 mm 2 mps 732 mmHg 42%
21:00 +2°C° 0 mm 2 mps 732 mmHg 42%
22:00 +1°C° 0 mm 2 mps 733 mmHg 41%
23:00 +1°C° 0 mm 2 mps 733 mmHg 41%

30 January, Saturday

Time Temperature Precipitation Wind Pressure Humidity
00:00 -1°C° 0 mm 2 mps 733 mmHg 40%
01:00 -1°C° 0 mm 2 mps 733 mmHg 39%
02:00 -1°C° 0 mm 2 mps 733 mmHg 38%
03:00 -2°C° 0 mm 2 mps 732 mmHg 38%
04:00 -2°C° 0 mm 2 mps 732 mmHg 37%
05:00 -2°C° 0 mm 2 mps 732 mmHg 37%
06:00 -2°C° 0 mm 2 mps 732 mmHg 36%
07:00 -2°C° 0 mm 2 mps 732 mmHg 36%
08:00 -2°C° 0 mm 2 mps 732 mmHg 35%
09:00 +1°C° 0 mm 2 mps 732 mmHg 31%
10:00 +3°C° 0 mm 2 mps 731 mmHg 27%
11:00 +5°C° 0 mm 2 mps 731 mmHg 23%
12:00 +7°C° 0 mm 2 mps 730 mmHg 22%
13:00 +8°C° 0 mm 2 mps 730 mmHg 20%
14:00 +9°C° 0 mm 2 mps 729 mmHg 19%
15:00 +8°C° 0 mm 2 mps 729 mmHg 22%
16:00 +7°C° 0 mm 2 mps 729 mmHg 26%
17:00 +7°C° 0 mm 1 mps 729 mmHg 29%
18:00 +5°C° 0 mm 2 mps 728 mmHg 33%
19:00 +4°C° 0 mm 2 mps 728 mmHg 36%
20:00 +3°C° 0 mm 2 mps 728 mmHg 40%
21:00 +3°C° 0 mm 2 mps 728 mmHg 39%
22:00 +3°C° 0 mm 2 mps 727 mmHg 39%
23:00 +2°C° 0 mm 2 mps 727 mmHg 38%

31 January, Sunday

Time Temperature Precipitation Wind Pressure Humidity
00:00 +2°C° 0 mm 2 mps 726 mmHg 38%
01:00 +2°C° 0 mm 2 mps 726 mmHg 39%
02:00 +1°C° 0 mm 2 mps 726 mmHg 39%
03:00 +1°C° 0 mm 2 mps 725 mmHg 39%
04:00 +1°C° 0 mm 2 mps 725 mmHg 40%
05:00 +1°C° 0 mm 2 mps 724 mmHg 40%
06:00 +1°C° 0 mm 2 mps 724 mmHg 39%
07:00 +2°C° 0 mm 1 mps 724 mmHg 39%
08:00 +2°C° 0 mm 1 mps 724 mmHg 38%
09:00 +4°C° 0 mm 1 mps 723 mmHg 34%
10:00 +5°C° 0 mm 1 mps 723 mmHg 30%
11:00 +6°C° 0 mm 2 mps 723 mmHg 27%
12:00 +8°C° 0 mm 1 mps 723 mmHg 25%
13:00 +9°C° 0 mm 1 mps 722 mmHg 24%
14:00 +9°C° 0 mm 0 mps 722 mmHg 23%
15:00 +8°C° 0 mm 0 mps 722 mmHg 25%
16:00 +8°C° 0 mm 0 mps 722 mmHg 28%
17:00 +7°C° 0 mm 0 mps 722 mmHg 30%
18:00 +6°C° 0 mm 0 mps 722 mmHg 32%
19:00 +6°C° 0 mm 0 mps 722 mmHg 34%
20:00 +6°C° 0 mm 1 mps 723 mmHg 35%
21:00 +6°C° 0 mm 1 mps 723 mmHg 37%
22:00 +6°C° 0 mm 1 mps 724 mmHg 39%
23:00 +5°C° 0 mm 2 mps 725 mmHg 41%
Show more